Location: Eaton Estates
(41.3089°N, 82.0057°W)
Time: 13:17:21
(UTC+00:00)

Cosmos 1441 Rocket - Pass Details

Date: 17 June 2021
Orbit: 495 x 539 km, 81.1° (Epoch: 26 July)

Event Time Altitude Azimuth Distance (km) Brightness Sun altitude
Exits shadow 05:12:09 55° 356° (N) 633 3.8 -25.2°
Drops below altitude 10° 05:15:14 10° 8° (N) 1,755 6.9 -25.2°
Sets 05:17:22 0° 9° (N) 2,639 8.1 -25.2°
